| time (UTC) | temp C | wind direction | speed KPH | gust KPH | rain 1hr cm | rain 24hr cm | rain mn cm | humidity % | barometer mb |
| 20260505061539 | 13 | 285 | 6.4 | 22.5 | 0.00 | 0.30 | 0.25 | 87 | 1001.0 |
| 20260505060035 | 13 | 213 | 6.4 | 16.1 | 0.00 | 0.30 | 0.25 | 87 | 1001.2 |
| 20260505054543 | 13 | 238 | 4.8 | 17.7 | 0.00 | 0.30 | 0.25 | 86 | 1000.6 |
| 20260505053044 | 13 | 263 | 8.0 | 17.7 | 0.08 | 0.30 | 0.25 | 85 | 1000.3 |
| 20260505051543 | 13 | 241 | 3.2 | 22.5 | 0.18 | 0.30 | 0.25 | 85 | 1000.2 |
| 20260505041534 | 15 | 291 | 14.5 | 40.2 | 0.08 | 0.13 | 0.08 | 80 | 1001.7 |
| 20260505040040 | 17 | 256 | 8.0 | 19.3 | 0.00 | 0.05 | 0.00 | 72 | 1000.9 |
| 20260505034542 | 17 | 207 | 9.7 | 20.9 | 0.00 | 0.05 | 0.05 | 71 | 1000.5 |
| 20260505033032 | 17 | 197 | 8.0 | 20.9 | 0.00 | 0.05 | 0.05 | 71 | 1000.4 |
| 20260505031538 | 17 | 162 | 1.6 | 19.3 | 0.00 | 0.05 | 0.05 | 73 | 1000.3 |
| 20260505030038 | 17 | 342 | 9.7 | 25.7 | 0.00 | 0.05 | 0.05 | 73 | 1000.4 |
| 20260505024537 | 17 | 236 | 4.8 | 19.3 | 0.00 | 0.05 | 0.05 | 74 | 1000.5 |
| 20260505023042 | 16 | 195 | 3.2 | 12.9 | 0.00 | 0.05 | 0.05 | 76 | 1000.2 |
| 20260505021536 | 16 | 250 | 1.6 | 9.7 | 0.00 | 0.05 | 0.05 | 77 | 1000.4 |
| 20260505020037 | 16 | 145 | 3.2 | 17.7 | 0.00 | 0.05 | 0.05 | 76 | 1000.2 |
| 20260505014535 | 16 | 114 | 3.2 | 16.1 | 0.00 | 0.05 | 0.05 | 77 | 1000.0 |
| 20260505013033 | 16 | 189 | 4.8 | 16.1 | 0.00 | 0.05 | 0.05 | 76 | 1000.1 |
| 20260505011543 | 16 | 260 | 8.0 | 17.7 | 0.00 | 0.05 | 0.05 | 77 | 1000.0 |
| 20260505010101 | 16 | 263 | 3.2 | 17.7 | 0.00 | 0.05 | 0.05 | 81 | 999.8 |
| 20260505004536 | 15 | 262 | 3.2 | 8.0 | 0.05 | 0.05 | 0.05 | 83 | 999.6 |
| 20260505003045 | 15 | 202 | 3.2 | 9.7 | 0.05 | 0.05 | 0.05 | 84 | 999.5 |
| 20260505001534 | 15 | 238 | 3.2 | 9.7 | 0.05 | 0.05 | 0.05 | 84 | 999.5 |
| 20260505000044 | 15 | 226 | 3.2 | 12.9 | 0.05 | 0.05 | 0.05 | 83 | 999.6 |
| 20260504234536 | 16 | 178 | 6.4 | 20.9 | 0.00 | 0.00 | 0.00 | 79 | 1000.0 |
| 20260504233043 | 16 | 21 | 3.2 | 12.9 | 0.00 | 0.00 | 0.00 | 78 | 1000.0 |
| 20260504231532 | 18 | 160 | 11.3 | 49.9 | 0.00 | 0.00 | 0.00 | 70 | 999.9 |
| 20260504230045 | 23 | 147 | 9.7 | 22.5 | 0.00 | 0.00 | 0.00 | 50 | 999.4 |
| 20260504224537 | 23 | 187 | 8.0 | 22.5 | 0.00 | 0.00 | 0.00 | 49 | 999.1 |
| 20260504223036 | 24 | 148 | 6.4 | 20.9 | 0.00 | 0.00 | 0.00 | 49 | 998.9 |
| 20260504221545 | 23 | 229 | 8.0 | 22.5 | 0.00 | 0.00 | 0.00 | 49 | 999.4 |
| 20260504220040 | 23 | 237 | 9.7 | 22.5 | 0.00 | 0.00 | 0.00 | 49 | 999.5 |
| 20260504214537 | 23 | 250 | 8.0 | 30.6 | 0.00 | 0.00 | 0.00 | 49 | 999.8 |
| 20260504213047 | 23 | 214 | 9.7 | 22.5 | 0.00 | 0.00 | 0.00 | 48 | 999.9 |
| 20260504211536 | 23 | 231 | 4.8 | 33.8 | 0.00 | 0.00 | 0.00 | 46 | 1000.0 |
| 20260504210034 | 23 | 333 | 9.7 | 33.8 | 0.00 | 0.00 | 0.00 | 45 | 1000.3 |
| 20260504204534 | 23 | 211 | 8.0 | 22.5 | 0.00 | 0.00 | 0.00 | 44 | 1000.4 |
| 20260504203046 | 23 | 249 | 11.3 | 32.2 | 0.00 | 0.00 | 0.00 | 42 | 1000.6 |
| 20260504201532 | 23 | 231 | 9.7 | 25.7 | 0.00 | 0.00 | 0.00 | 40 | 1000.7 |
| 20260504200032 | 23 | 143 | 12.9 | 29.0 | 0.00 | 0.00 | 0.00 | 39 | 1000.6 |
| 20260504194546 | 23 | 312 | 8.0 | 29.0 | 0.00 | 0.00 | 0.00 | 40 | 1000.8 |
| 20260504193037 | 23 | 231 | 8.0 | 27.4 | 0.00 | 0.00 | 0.00 | 40 | 1000.9 |
| 20260504191540 | 23 | 238 | 16.1 | 38.6 | 0.00 | 0.00 | 0.00 | 36 | 1001.1 |
| 20260504190034 | 23 | 191 | 8.0 | 35.4 | 0.00 | 0.00 | 0.00 | 36 | 1001.2 |
| 20260504184535 | 23 | 231 | 17.7 | 38.6 | 0.00 | 0.03 | 0.00 | 32 | 1001.4 |
| 20260504183031 | 23 | 231 | 9.7 | 35.4 | 0.00 | 0.03 | 0.00 | 34 | 1001.4 |
| 20260504181540 | 22 | 283 | 16.1 | 37.0 | 0.00 | 0.03 | 0.00 | 33 | 1001.8 |
| 20260504180045 | 22 | 221 | 8.0 | 29.0 | 0.00 | 0.03 | 0.00 | 38 | 1001.8 |
| 20260504174535 | 22 | 243 | 8.0 | 32.2 | 0.00 | 0.03 | 0.00 | 42 | 1001.9 |
| 20260504173035 | 22 | 261 | 9.7 | 35.4 | 0.00 | 0.03 | 0.00 | 46 | 1002.1 |
| 20260504171536 | 22 | 276 | 20.9 | 46.7 | 0.00 | 0.03 | 0.00 | 39 | 1002.6 |
| 20260504081537 | 8 | 190 | 0.0 | 8.0 | 0.00 | 0.03 | 0.00 | 78 | 1005.3 |